Tracking 25701 objects as of 3-Jul-2022
HD Live streaming from Space Station
objects crossing your sky now

MDASAT-1B

Track MDASAT-1B now!
10-day predictions


NORAD ID: 51050
Int'l Code: 2022-002BU
Perigee: 525.7 km
Apogee: 539.3 km
Inclination: 97.5 °
Period: 95.1 minutes
Semi major axis: 6903 km
RCS: Unknown
Launch date: January 13, 2022
Source: South Africa (SAFR)
Launch site: AIR FORCE EASTERN TEST RANGE (AFETR)
aabbcc
Your satellite tracking list
Your tracking list is empty




NASA's NSSDC Master Catalog

Two Line Element Set (TLE):
1 51050U 22002BU  22184.14044764  .00002726  00000-0  15556-3 0  9996
2 51050  97.4885 250.8974 0009847  30.9467 329.2343 15.13554699 25782
Source of the keplerian elements: AFSPC